Odi Airport [CLOSED]

Jump to: basic info | weather | comments

Related pages: nearby airports | nearby navaids | notams | map

Basic information (top)

Codes: FAIO
Location: lon -25.549999, lat 27.933001, elev 3,862 ft / 1,177 m msl
Status: closed

Weather (top)

Current conditions for Wonderboom Airport 17nm (31km) ESE (rec'd 2015/04/27 10:00Z):

FAWB 271000Z 28003KT CAVOK 27/05 Q1020

Airport forecast for Wonderboom Airport 17nm (31km) ESE (rec'd 2015/04/20 10:05Z):

TAF FAWB 201005Z 2010/2018 29012KT 9999 BKN020 
      BECMG 2010/2012 SCT035 TX25/2013ZTN12/2018Z

Latest comments (top)

Odi Raceway: NOT AN AIRPORT ANYMORE. HAS BEEN A DRAG ... [read]

Runway Details: Runways: 10 & 29 Runway Length = ... [read]

More... (top)

See also NOTAMs and nearby airports and navaids, or visit the Odi Airport page at the main OurAirports website..